Aérodrome :







RETROUVEZ-NOUS SUR...

 
LOGIN :

S'inscrire | Disclaimer

   EN    FR    IT 

 









Légende :    VFR   VFR Marginal   IFR   IFR Intensif   IFR Très Intensif
Visi : 
Plafond : 
>= 8 km
>= 3000ft
5 à 8 km
1000 à 3000 ft
1500m à 5 km
500 à 1000 ft
800 à 1500m
200 à 500 ft
< 800m
< 200 ft
Symboles :   Orages  Brouillard  Fortes neiges  Fortes précipitations  Vent > 20 kt






- Altitude de l'aérodrome : 98 ft
- Code IATA : JBQ


MDJB - El Higuero

DERNIER METAR :
  • 251500Z 11010KT 9999 SCT020 SCT020 31/24 Q1016 NOSIG

METARs EXPIRÉS :
  • 251400Z 09005KT 9999 FEW018 30/25 Q1016 NOSIG
  • 251300Z 00000KT 9999 FEW018 29/25 Q1016 NOSIG

TAF TAF MDJB
Valide du 25 à 12h jusqu'au 26 à 12h UTC


251000Z 2512/2612 04004KT 9999 SCT018 SCT300
BECMG 2515/2517 18010KT
PROB30 2518/2600 7000 -TSRA FEW014CB BKN016 BKN070
FIR MDCS / Amérique du Nord



MET'MAP, la Météo Aéronautique d'un coup d'oeil ! - Copyright ORBIFLY Décembre 2007 - Disclaimer

ORBIFLY MET'MAP TEAM :

Programmation & Développement : Alexandra Zaïnal
Sur une idée originale de : Baudouin d'Aumeries
Assistance à la programmation : Marc-Olivier Méhu
Soutien technique & logistique : Manuel Goepfert

Contact : metmap@orbifly.com




SOURCES & CREDITS :

   NOAA